| time (UTC) | temp F | wind direction | speed MPH | gust MPH | rain 1hr in | rain 24hr in | rain mn in | humidity % | barometer mb |
| 20260508022228 | 68 | 0 | 0.0 | 0.0 | 0.00 | 0.00 | 0.00 | 31 | 970.2 |
| 20260508022221 | 67 | 0 | 0.0 | 0.0 | 0.00 | 0.00 | 0.00 | 31 | 970.0 |
| 20260508021219 | 68 | 0 | 0.0 | 1.0 | 0.00 | 0.00 | 0.00 | 29 | 970.2 |
| 20260508020730 | 68 | 0 | 0.0 | 15.0 | 0.00 | 0.00 | 0.00 | 29 | 970.2 |
| 20260508020722 | 68 | 0 | 0.0 | 4.0 | 0.00 | 0.00 | 0.00 | 29 | 970.1 |
| 20260508015721 | 69 | 4 | 1.0 | 15.0 | 0.00 | 0.00 | 0.00 | 29 | 970.2 |
| 20260508015219 | 69 | 0 | 2.0 | 11.0 | 0.00 | 0.00 | 0.00 | 29 | 970.1 |
| 20260508014723 | 69 | 333 | 0.0 | 14.0 | 0.00 | 0.00 | 0.00 | 29 | 970.0 |
| 20260508014221 | 69 | 0 | 0.0 | 15.0 | 0.00 | 0.00 | 0.00 | 28 | 970.1 |
| 20260508013723 | 69 | 13 | 6.0 | 15.0 | 0.00 | 0.00 | 0.00 | 29 | 970.2 |
| 20260508013219 | 70 | 13 | 0.0 | 0.0 | 0.00 | 0.00 | 0.00 | 34 | 970.0 |
| 20260508012721 | 70 | 13 | 0.0 | 0.0 | 0.00 | 0.00 | 0.00 | 28 | 969.9 |
| 20260508012218 | 70 | 13 | 0.0 | 0.0 | 0.00 | 0.00 | 0.00 | 28 | 969.8 |
| 20260508011721 | 70 | 13 | 0.0 | 0.0 | 0.00 | 0.00 | 0.00 | 29 | 969.7 |
| 20260508011218 | 71 | 13 | 0.0 | 0.0 | 0.00 | 0.00 | 0.00 | 30 | 969.6 |
| 20260508010722 | 71 | 13 | 0.0 | 2.0 | 0.00 | 0.00 | 0.00 | 27 | 969.6 |
| 20260508010218 | 71 | 13 | 0.0 | 2.0 | 0.00 | 0.00 | 0.00 | 26 | 969.5 |
| 20260508005722 | 71 | 13 | 0.0 | 2.0 | 0.00 | 0.00 | 0.00 | 25 | 969.5 |
| 20260508005217 | 71 | 13 | 0.0 | 2.0 | 0.00 | 0.00 | 0.00 | 25 | 969.6 |
| 20260508004721 | 71 | 13 | 0.0 | 0.0 | 0.00 | 0.00 | 0.00 | 25 | 969.5 |
| 20260508004217 | 71 | 13 | 0.0 | 0.0 | 0.00 | 0.00 | 0.00 | 25 | 969.6 |
| 20260508003722 | 71 | 13 | 0.0 | 0.0 | 0.00 | 0.00 | 0.00 | 24 | 969.6 |
| 20260508003218 | 72 | 13 | 0.0 | 0.0 | 0.00 | 0.00 | 0.00 | 25 | 969.5 |
| 20260508002721 | 72 | 14 | 0.0 | 3.0 | 0.00 | 0.00 | 0.00 | 25 | 969.5 |
| 20260508002218 | 72 | 14 | 1.0 | 3.0 | 0.00 | 0.00 | 0.00 | 24 | 969.4 |
| 20260508001726 | 73 | 13 | 0.0 | 4.0 | 0.00 | 0.00 | 0.00 | 24 | 969.5 |
| 20260508001718 | 72 | 13 | 0.0 | 2.0 | 0.00 | 0.00 | 0.00 | 24 | 969.4 |
| 20260508000722 | 73 | 13 | 0.0 | 4.0 | 0.00 | 0.00 | 0.00 | 23 | 969.4 |
| 20260508000219 | 73 | 0 | 0.0 | 6.0 | 0.00 | 0.00 | 0.00 | 23 | 969.4 |
| 20260507235718 | 74 | 336 | 1.0 | 6.0 | 0.00 | 0.00 | 0.00 | 22 | 969.2 |
| 20260507235217 | 74 | 45 | 0.0 | 0.0 | 0.00 | 0.00 | 0.00 | 21 | 969.2 |
| 20260507234723 | 75 | 37 | 0.0 | 9.0 | 0.00 | 0.00 | 0.00 | 21 | 969.1 |
| 20260507234218 | 75 | 0 | 0.0 | 10.0 | 0.00 | 0.00 | 0.00 | 21 | 969.1 |
| 20260507233718 | 76 | 0 | 0.0 | 10.0 | 0.00 | 0.00 | 0.00 | 23 | 969.1 |
| 20260507233223 | 76 | 1 | 1.0 | 6.0 | 0.00 | 0.00 | 0.00 | 20 | 969.2 |
| 20260507233216 | 76 | 68 | 0.0 | 10.0 | 0.00 | 0.00 | 0.00 | 21 | 969.1 |
| 20260507232844 | 77 | 3 | 0.0 | 5.0 | 0.00 | 0.00 | 0.00 | 20 | 969.2 |
| 20260507231720 | 76 | 350 | 0.0 | 7.0 | 0.00 | 0.00 | 0.00 | 20 | 969.2 |
| 20260507231216 | 76 | 1 | 0.0 | 7.0 | 0.00 | 0.00 | 0.00 | 20 | 969.2 |
| 20260507230720 | 75 | 337 | 1.0 | 5.0 | 0.00 | 0.00 | 0.00 | 21 | 969.3 |
| 20260507230216 | 75 | 347 | 0.0 | 3.0 | 0.00 | 0.00 | 0.00 | 22 | 969.3 |
| 20260507225727 | 74 | 351 | 0.0 | 5.0 | 0.00 | 0.00 | 0.00 | 22 | 969.3 |
| 20260507225720 | 74 | 0 | 0.0 | 4.0 | 0.00 | 0.00 | 0.00 | 22 | 969.4 |
| 20260507224718 | 74 | 0 | 0.0 | 6.0 | 0.00 | 0.00 | 0.00 | 22 | 969.3 |
| 20260507224215 | 75 | 344 | 1.0 | 6.0 | 0.00 | 0.00 | 0.00 | 21 | 969.4 |
| 20260507223718 | 75 | 340 | 0.0 | 7.0 | 0.00 | 0.00 | 0.00 | 21 | 969.4 |
| 20260507223215 | 75 | 343 | 1.0 | 14.0 | 0.00 | 0.00 | 0.00 | 21 | 969.4 |
| 20260507222718 | 75 | 357 | 2.0 | 14.0 | 0.00 | 0.00 | 0.00 | 21 | 969.4 |
| 20260507222214 | 75 | 330 | 4.0 | 11.0 | 0.00 | 0.00 | 0.00 | 21 | 969.4 |
| 20260507221719 | 76 | 13 | 1.0 | 13.0 | 0.00 | 0.00 | 0.00 | 21 | 969.5 |
| 20260507221213 | 76 | 0 | 1.0 | 13.0 | 0.00 | 0.00 | 0.00 | 22 | 969.4 |
| 20260507220715 | 75 | 49 | 2.0 | 11.0 | 0.00 | 0.00 | 0.00 | 23 | 969.5 |
| 20260507220219 | 75 | 4 | 0.0 | 1.0 | 0.00 | 0.00 | 0.00 | 23 | 969.5 |
| 20260507220213 | 75 | 16 | 1.0 | 11.0 | 0.00 | 0.00 | 0.00 | 22 | 969.6 |
| 20260507215214 | 75 | 17 | 0.0 | 7.0 | 0.00 | 0.00 | 0.00 | 21 | 969.6 |
| 20260507214715 | 74 | 17 | 0.0 | 10.0 | 0.00 | 0.00 | 0.00 | 22 | 969.8 |
| 20260507214215 | 74 | 0 | 3.0 | 10.0 | 0.00 | 0.00 | 0.00 | 23 | 969.8 |
| 20260507213714 | 74 | 90 | 0.0 | 12.0 | 0.00 | 0.00 | 0.00 | 23 | 969.7 |
| 20260507213213 | 74 | 1 | 4.0 | 12.0 | 0.00 | 0.00 | 0.00 | 23 | 969.9 |
| 20260507212714 | 74 | 8 | 0.0 | 15.0 | 0.00 | 0.00 | 0.00 | 23 | 969.9 |
| 20260507212212 | 74 | 11 | 0.0 | 15.0 | 0.00 | 0.00 | 0.00 | 23 | 970.0 |
| 20260507211722 | 74 | 20 | 0.0 | 13.0 | 0.00 | 0.00 | 0.00 | 23 | 970.1 |
| 20260507211715 | 74 | 341 | 3.0 | 13.0 | 0.00 | 0.00 | 0.00 | 23 | 970.1 |
| 20260507210714 | 75 | 295 | 0.0 | 9.0 | 0.00 | 0.00 | 0.00 | 22 | 970.1 |
| 20260507210212 | 76 | 269 | 1.0 | 11.0 | 0.00 | 0.00 | 0.00 | 22 | 970.1 |
| 20260507205715 | 76 | 281 | 2.0 | 14.0 | 0.00 | 0.00 | 0.00 | 21 | 970.2 |
| 20260507205219 | 76 | 302 | 0.0 | 7.0 | 0.00 | 0.00 | 0.00 | 23 | 970.3 |
| 20260507205211 | 76 | 268 | 0.0 | 14.0 | 0.00 | 0.00 | 0.00 | 22 | 970.2 |
| 20260507204212 | 75 | 326 | 0.0 | 5.0 | 0.00 | 0.00 | 0.00 | 23 | 970.3 |
| 20260507203713 | 74 | 0 | 1.0 | 5.0 | 0.00 | 0.00 | 0.00 | 23 | 970.4 |
| 20260507203211 | 74 | 0 | 0.0 | 16.0 | 0.00 | 0.00 | 0.00 | 25 | 970.3 |
| 20260507202712 | 74 | 331 | 0.0 | 16.0 | 0.00 | 0.00 | 0.00 | 23 | 970.3 |
| 20260507202211 | 74 | 317 | 1.0 | 16.0 | 0.00 | 0.00 | 0.00 | 24 | 970.3 |
| 20260507201714 | 74 | 290 | 5.0 | 17.0 | 0.00 | 0.00 | 0.00 | 24 | 970.3 |
| 20260507201219 | 76 | 343 | 5.0 | 19.0 | 0.00 | 0.00 | 0.00 | 23 | 970.3 |
| 20260507201212 | 75 | 269 | 8.0 | 18.0 | 0.00 | 0.00 | 0.00 | 24 | 970.3 |
| 20260507200211 | 76 | 310 | 9.0 | 19.0 | 0.00 | 0.00 | 0.00 | 25 | 970.3 |
| 20260507195712 | 76 | 296 | 5.0 | 17.0 | 0.00 | 0.00 | 0.00 | 23 | 970.4 |
| 20260507195210 | 76 | 338 | 5.0 | 14.0 | 0.00 | 0.00 | 0.00 | 25 | 970.4 |
| 20260507194712 | 76 | 265 | 0.0 | 15.0 | 0.00 | 0.00 | 0.00 | 25 | 970.4 |
| 20260507194211 | 75 | 252 | 6.0 | 15.0 | 0.00 | 0.00 | 0.00 | 25 | 970.6 |
| 20260507193712 | 76 | 309 | 5.0 | 14.0 | 0.00 | 0.00 | 0.00 | 24 | 970.6 |
| 20260507193210 | 75 | 1 | 0.0 | 13.0 | 0.00 | 0.00 | 0.00 | 27 | 970.4 |
| 20260507192713 | 75 | 302 | 1.0 | 18.0 | 0.00 | 0.00 | 0.00 | 25 | 970.6 |
| 20260507192210 | 75 | 288 | 5.0 | 18.0 | 0.00 | 0.00 | 0.00 | 26 | 970.4 |
| 20260507191711 | 74 | 300 | 0.0 | 10.0 | 0.00 | 0.00 | 0.00 | 27 | 970.4 |
| 20260507191210 | 73 | 324 | 2.0 | 12.0 | 0.00 | 0.00 | 0.00 | 27 | 970.6 |
| 20260507190711 | 73 | 272 | 2.0 | 12.0 | 0.00 | 0.00 | 0.00 | 27 | 970.7 |
| 20260507190209 | 73 | 344 | 2.0 | 12.0 | 0.00 | 0.00 | 0.00 | 27 | 970.7 |
| 20260507185710 | 74 | 354 | 2.0 | 11.0 | 0.00 | 0.00 | 0.00 | 28 | 970.7 |
| 20260507185208 | 74 | 0 | 0.0 | 12.0 | 0.00 | 0.00 | 0.00 | 29 | 970.7 |
| 20260507184710 | 73 | 286 | 0.0 | 14.0 | 0.00 | 0.00 | 0.00 | 29 | 970.7 |
| 20260507184209 | 73 | 333 | 0.0 | 14.0 | 0.00 | 0.00 | 0.00 | 28 | 970.8 |
| 20260507183710 | 73 | 286 | 6.0 | 14.0 | 0.00 | 0.00 | 0.00 | 28 | 970.8 |
| 20260507183215 | 73 | 326 | 0.0 | 16.0 | 0.00 | 0.00 | 0.00 | 30 | 970.8 |
| 20260507183208 | 73 | 255 | 6.0 | 14.0 | 0.00 | 0.00 | 0.00 | 29 | 970.9 |
| 20260507182208 | 72 | 272 | 0.0 | 18.0 | 0.00 | 0.00 | 0.00 | 31 | 971.0 |
| 20260507181711 | 72 | 326 | 4.0 | 18.0 | 0.00 | 0.00 | 0.00 | 30 | 971.0 |
| 20260507181208 | 71 | 312 | 0.0 | 15.0 | 0.00 | 0.00 | 0.00 | 33 | 970.9 |
| 20260507180710 | 71 | 278 | 7.0 | 15.0 | 0.00 | 0.00 | 0.00 | 31 | 971.0 |
| 20260507180207 | 72 | 350 | 3.0 | 11.0 | 0.00 | 0.00 | 0.00 | 31 | 970.9 |
| 20260507175718 | 71 | 320 | 0.0 | 10.0 | 0.00 | 0.00 | 0.00 | 31 | 970.9 |
| 20260507175710 | 72 | 0 | 0.0 | 10.0 | 0.00 | 0.00 | 0.00 | 31 | 970.7 |
| 20260507174716 | 70 | 259 | 0.0 | 10.0 | 0.00 | 0.00 | 0.00 | 35 | 970.9 |
| 20260507174709 | 71 | 319 | 2.0 | 10.0 | 0.00 | 0.00 | 0.00 | 34 | 970.8 |
| 20260507173709 | 70 | 254 | 0.0 | 12.0 | 0.00 | 0.00 | 0.00 | 34 | 970.8 |
| 20260507173216 | 69 | 316 | 0.0 | 14.0 | 0.00 | 0.00 | 0.00 | 33 | 970.7 |
| 20260507173208 | 69 | 292 | 3.0 | 12.0 | 0.00 | 0.00 | 0.00 | 33 | 970.8 |
| 20260507172834 | 68 | 330 | 4.0 | 17.0 | 0.00 | 0.00 | 0.00 | 34 | 970.9 |
| 20260507171708 | 68 | 317 | 12.0 | 17.0 | 0.00 | 0.00 | 0.00 | 34 | 970.9 |
| 20260507171207 | 68 | 333 | 0.0 | 10.0 | 0.00 | 0.00 | 0.00 | 33 | 971.0 |
| 20260507170708 | 68 | 320 | 0.0 | 13.0 | 0.00 | 0.00 | 0.00 | 34 | 971.0 |
| 20260507170209 | 67 | 307 | 5.0 | 13.0 | 0.00 | 0.00 | 0.00 | 37 | 971.1 |
| 20260507165205 | 67 | 279 | 1.0 | 13.0 | 0.00 | 0.00 | 0.00 | 39 | 971.2 |
| 20260507164708 | 66 | 274 | 6.0 | 11.0 | 0.00 | 0.00 | 0.00 | 39 | 971.2 |
| 20260507164206 | 65 | 244 | 0.0 | 10.0 | 0.00 | 0.00 | 0.00 | 40 | 971.2 |
| 20260507163707 | 65 | 293 | 1.0 | 10.0 | 0.00 | 0.00 | 0.00 | 41 | 971.3 |
| 20260507163205 | 65 | 296 | 1.0 | 13.0 | 0.00 | 0.00 | 0.00 | 41 | 971.3 |
| 20260507162715 | 64 | 283 | 4.0 | 12.0 | 0.00 | 0.00 | 0.00 | 40 | 971.4 |
| 20260507162707 | 65 | 245 | 1.0 | 13.0 | 0.00 | 0.00 | 0.00 | 41 | 971.3 |
| 20260507161716 | 64 | 271 | 1.0 | 10.0 | 0.00 | 0.00 | 0.00 | 41 | 971.4 |
| 20260507161707 | 64 | 292 | 1.0 | 12.0 | 0.00 | 0.00 | 0.00 | 41 | 971.4 |
| 20260507160707 | 64 | 303 | 1.0 | 12.0 | 0.00 | 0.00 | 0.00 | 41 | 971.5 |
| 20260507160205 | 64 | 295 | 4.0 | 12.0 | 0.00 | 0.00 | 0.00 | 40 | 971.5 |
| 20260507155706 | 65 | 289 | 3.0 | 13.0 | 0.00 | 0.00 | 0.00 | 40 | 971.5 |
| 20260507155204 | 65 | 289 | 3.0 | 13.0 | 0.00 | 0.00 | 0.00 | 41 | 971.6 |
| 20260507154713 | 62 | 299 | 5.0 | 10.0 | 0.00 | 0.00 | 0.00 | 42 | 971.5 |
| 20260507154706 | 63 | 306 | 4.0 | 12.0 | 0.00 | 0.00 | 0.00 | 41 | 971.6 |
| 20260507153705 | 61 | 285 | 1.0 | 6.0 | 0.00 | 0.00 | 0.00 | 44 | 971.6 |
| 20260507153203 | 60 | 207 | 2.0 | 4.0 | 0.00 | 0.00 | 0.00 | 49 | 971.7 |
| 20260507152705 | 60 | 204 | 0.0 | 0.0 | 0.00 | 0.00 | 0.00 | 46 | 971.6 |
| 20260507152221 | 60 | 204 | 0.0 | 0.0 | 0.00 | 0.00 | 0.00 | 43 | 971.7 |
| 20260507152204 | 60 | 204 | 0.0 | 0.0 | 0.00 | 0.00 | 0.00 | 49 | 971.7 |
| 20260507151832 | 59 | 206 | 0.0 | 0.0 | 0.00 | 0.00 | 0.00 | 45 | 971.7 |
| 20260507150706 | 59 | 269 | 0.0 | 0.0 | 0.00 | 0.00 | 0.00 | 47 | 971.7 |
| 20260507150212 | 57 | 269 | 0.0 | 0.0 | 0.00 | 0.00 | 0.00 | 49 | 971.6 |
| 20260507150204 | 58 | 269 | 0.0 | 0.0 | 0.00 | 0.00 | 0.00 | 48 | 971.7 |
| 20260507145204 | 56 | 269 | 0.0 | 0.0 | 0.00 | 0.00 | 0.00 | 49 | 971.6 |
| 20260507144713 | 54 | 269 | 0.0 | 0.0 | 0.00 | 0.00 | 0.00 | 53 | 971.5 |
| 20260507144705 | 55 | 269 | 0.0 | 0.0 | 0.00 | 0.00 | 0.00 | 50 | 971.6 |
| 20260507143704 | 54 | 269 | 0.0 | 0.0 | 0.00 | 0.00 | 0.00 | 53 | 971.5 |
| 20260507143202 | 53 | 269 | 0.0 | 0.0 | 0.00 | 0.00 | 0.00 | 53 | 971.5 |
| 20260507142704 | 52 | 269 | 0.0 | 0.0 | 0.00 | 0.00 | 0.00 | 55 | 971.4 |
| 20260507142202 | 50 | 269 | 0.0 | 0.0 | 0.00 | 0.00 | 0.00 | 61 | 971.4 |
| 20260507141704 | 49 | 269 | 0.0 | 0.0 | 0.00 | 0.00 | 0.00 | 60 | 971.5 |
| 20260507141202 | 49 | 269 | 0.0 | 3.0 | 0.00 | 0.00 | 0.00 | 59 | 971.4 |
| 20260507140713 | 48 | 274 | 0.0 | 2.0 | 0.00 | 0.00 | 0.00 | 60 | 971.5 |
| 20260507140705 | 48 | 274 | 0.0 | 3.0 | 0.00 | 0.00 | 0.00 | 59 | 971.5 |
| 20260507135703 | 48 | 274 | 0.0 | 2.0 | 0.00 | 0.00 | 0.00 | 60 | 971.5 |
| 20260507135200 | 47 | 274 | 0.0 | 5.0 | 0.00 | 0.00 | 0.00 | 62 | 971.4 |
| 20260507134711 | 47 | 274 | 0.0 | 2.0 | 0.00 | 0.00 | 0.00 | 62 | 971.4 |
| 20260507134704 | 47 | 274 | 1.0 | 5.0 | 0.00 | 0.00 | 0.00 | 62 | 971.5 |
| 20260507133702 | 47 | 274 | 0.0 | 1.0 | 0.00 | 0.00 | 0.00 | 63 | 971.4 |
| 20260507133201 | 47 | 274 | 0.0 | 0.0 | 0.00 | 0.00 | 0.00 | 63 | 971.4 |
| 20260507132701 | 47 | 274 | 0.0 | 0.0 | 0.00 | 0.00 | 0.00 | 64 | 971.5 |
| 20260507132201 | 46 | 274 | 0.0 | 0.0 | 0.00 | 0.00 | 0.00 | 60 | 971.4 |
| 20260507131709 | 46 | 274 | 0.0 | 3.0 | 0.00 | 0.00 | 0.00 | 61 | 971.5 |
| 20260507131701 | 46 | 274 | 0.0 | 3.0 | 0.00 | 0.00 | 0.00 | 60 | 971.5 |
| 20260507130702 | 46 | 274 | 0.0 | 0.0 | 0.00 | 0.00 | 0.00 | 60 | 971.4 |
| 20260507130159 | 46 | 274 | 0.0 | 0.0 | 0.00 | 0.00 | 0.00 | 61 | 971.4 |
| 20260507125703 | 46 | 274 | 0.0 | 0.0 | 0.00 | 0.00 | 0.00 | 61 | 971.4 |
| 20260507125158 | 46 | 274 | 0.0 | 4.0 | 0.00 | 0.00 | 0.00 | 60 | 971.4 |
| 20260507124709 | 46 | 312 | 0.0 | 3.0 | 0.00 | 0.00 | 0.00 | 61 | 971.3 |
| 20260507124702 | 46 | 274 | 1.0 | 4.0 | 0.00 | 0.00 | 0.00 | 60 | 971.4 |
| 20260507124325 | 45 | 306 | 0.0 | 5.0 | 0.00 | 0.00 | 0.00 | 61 | 971.3 |
| 20260507123826 | 45 | 288 | 1.0 | 5.0 | 0.00 | 0.00 | 0.00 | 62 | 971.1 |
| 20260507122701 | 45 | 259 | 1.0 | 5.0 | 0.00 | 0.00 | 0.00 | 61 | 971.0 |
| 20260507122200 | 45 | 271 | 0.0 | 0.0 | 0.00 | 0.00 | 0.00 | 62 | 971.1 |
| 20260507121702 | 45 | 271 | 0.0 | 0.0 | 0.00 | 0.00 | 0.00 | 62 | 971.0 |
| 20260507121200 | 45 | 282 | 0.0 | 0.0 | 0.00 | 0.00 | 0.00 | 62 | 971.0 |
| 20260507120700 | 45 | 282 | 0.0 | 0.0 | 0.00 | 0.00 | 0.00 | 61 | 971.1 |
| 20260507120208 | 45 | 282 | 0.0 | 0.0 | 0.00 | 0.00 | 0.00 | 60 | 970.9 |
| 20260507120200 | 45 | 282 | 0.0 | 0.0 | 0.00 | 0.00 | 0.00 | 60 | 970.9 |
| 20260507115159 | 45 | 283 | 0.0 | 0.0 | 0.00 | 0.00 | 0.00 | 60 | 970.9 |
| 20260507114700 | 45 | 283 | 0.0 | 0.0 | 0.00 | 0.00 | 0.00 | 60 | 970.9 |
| 20260507114158 | 45 | 282 | 0.0 | 0.0 | 0.00 | 0.00 | 0.00 | 60 | 970.8 |
| 20260507113659 | 45 | 282 | 0.0 | 1.0 | 0.00 | 0.00 | 0.00 | 61 | 970.9 |
| 20260507113159 | 45 | 282 | 0.0 | 1.0 | 0.00 | 0.00 | 0.00 | 60 | 970.9 |
| 20260507112659 | 45 | 283 | 0.0 | 0.0 | 0.00 | 0.00 | 0.00 | 60 | 970.9 |
| 20260507112158 | 45 | 283 | 0.0 | 0.0 | 0.00 | 0.00 | 0.00 | 59 | 970.8 |
| 20260507111659 | 45 | 283 | 0.0 | 0.0 | 0.00 | 0.00 | 0.00 | 59 | 970.8 |
| 20260507111157 | 45 | 282 | 0.0 | 0.0 | 0.00 | 0.00 | 0.00 | 60 | 970.6 |
| 20260507110658 | 44 | 282 | 0.0 | 0.0 | 0.00 | 0.00 | 0.00 | 60 | 970.6 |
| 20260507110158 | 44 | 283 | 0.0 | 0.0 | 0.00 | 0.00 | 0.00 | 60 | 970.7 |
| 20260507105658 | 44 | 283 | 0.0 | 4.0 | 0.00 | 0.00 | 0.00 | 60 | 970.8 |
| 20260507105157 | 44 | 282 | 0.0 | 7.0 | 0.00 | 0.00 | 0.00 | 61 | 970.6 |
| 20260507104659 | 44 | 283 | 0.0 | 7.0 | 0.00 | 0.00 | 0.00 | 62 | 970.6 |
| 20260507104159 | 44 | 265 | 1.0 | 4.0 | 0.00 | 0.00 | 0.00 | 63 | 970.4 |
| 20260507103658 | 44 | 283 | 0.0 | 4.0 | 0.00 | 0.00 | 0.00 | 64 | 970.3 |
| 20260507103157 | 44 | 173 | 0.0 | 1.0 | 0.00 | 0.00 | 0.00 | 65 | 970.6 |
| 20260507102705 | 44 | 172 | 0.0 | 0.0 | 0.00 | 0.00 | 0.00 | 64 | 970.8 |
| 20260507102657 | 44 | 172 | 0.0 | 0.0 | 0.00 | 0.00 | 0.00 | 66 | 970.8 |
| 20260507101658 | 44 | 172 | 0.0 | 0.0 | 0.00 | 0.00 | 0.00 | 64 | 970.8 |
| 20260507101157 | 44 | 172 | 0.0 | 0.0 | 0.00 | 0.00 | 0.00 | 63 | 970.8 |
| 20260507100659 | 44 | 172 | 0.0 | 2.0 | 0.00 | 0.00 | 0.00 | 62 | 970.8 |
| 20260507100155 | 45 | 172 | 0.0 | 2.0 | 0.00 | 0.00 | 0.00 | 62 | 970.8 |
| 20260507095657 | 45 | 172 | 0.0 | 0.0 | 0.00 | 0.00 | 0.00 | 63 | 970.8 |
| 20260507095155 | 45 | 172 | 0.0 | 0.0 | 0.00 | 0.00 | 0.00 | 63 | 970.8 |
| 20260507094704 | 45 | 172 | 0.0 | 0.0 | 0.00 | 0.00 | 0.00 | 64 | 970.7 |
| 20260507094657 | 45 | 172 | 0.0 | 0.0 | 0.00 | 0.00 | 0.00 | 63 | 970.7 |
| 20260507093655 | 46 | 172 | 0.0 | 0.0 | 0.00 | 0.00 | 0.00 | 64 | 970.6 |
| 20260507093156 | 46 | 172 | 0.0 | 0.0 | 0.00 | 0.00 | 0.00 | 64 | 970.6 |
| 20260507092656 | 46 | 172 | 0.0 | 0.0 | 0.00 | 0.00 | 0.00 | 62 | 970.4 |
| 20260507092155 | 46 | 172 | 0.0 | 0.0 | 0.00 | 0.00 | 0.00 | 60 | 970.4 |
| 20260507091705 | 46 | 172 | 0.0 | 0.0 | 0.00 | 0.00 | 0.00 | 57 | 970.3 |
| 20260507091657 | 46 | 172 | 0.0 | 0.0 | 0.00 | 0.00 | 0.00 | 59 | 970.4 |
| 20260507090656 | 47 | 172 | 0.0 | 0.0 | 0.00 | 0.00 | 0.00 | 57 | 970.3 |
| 20260507090201 | 47 | 172 | 0.0 | 0.0 | 0.00 | 0.00 | 0.00 | 57 | 970.0 |
| 20260507090153 | 47 | 172 | 0.0 | 0.0 | 0.00 | 0.00 | 0.00 | 56 | 970.1 |
| 20260507085820 | 47 | 172 | 0.0 | 0.0 | 0.00 | 0.00 | 0.00 | 58 | 970.0 |
| 20260507084657 | 47 | 172 | 0.0 | 0.0 | 0.00 | 0.00 | 0.00 | 58 | 969.9 |
| 20260507084153 | 47 | 172 | 0.0 | 0.0 | 0.00 | 0.00 | 0.00 | 58 | 970.0 |
| 20260507083656 | 47 | 172 | 0.0 | 0.0 | 0.00 | 0.00 | 0.00 | 57 | 970.0 |
| 20260507083153 | 47 | 172 | 0.0 | 0.0 | 0.00 | 0.00 | 0.00 | 57 | 969.8 |
| 20260507082704 | 48 | 172 | 0.0 | 0.0 | 0.00 | 0.00 | 0.00 | 56 | 969.7 |
| 20260507082656 | 47 | 172 | 0.0 | 0.0 | 0.00 | 0.00 | 0.00 | 56 | 969.7 |
| 20260507081655 | 48 | 172 | 0.0 | 0.0 | 0.00 | 0.00 | 0.00 | 56 | 969.6 |
| 20260507081201 | 48 | 172 | 0.0 | 0.0 | 0.00 | 0.00 | 0.00 | 55 | 969.5 |
| 20260507081154 | 48 | 172 | 0.0 | 0.0 | 0.00 | 0.00 | 0.00 | 55 | 969.5 |
| 20260507080154 | 48 | 172 | 0.0 | 0.0 | 0.00 | 0.00 | 0.00 | 54 | 969.5 |
| 20260507075654 | 48 | 172 | 0.0 | 0.0 | 0.00 | 0.00 | 0.00 | 53 | 969.5 |
| 20260507075152 | 48 | 172 | 0.0 | 0.0 | 0.00 | 0.00 | 0.00 | 51 | 969.5 |
| 20260507074654 | 48 | 172 | 0.0 | 0.0 | 0.00 | 0.00 | 0.00 | 51 | 969.4 |
| 20260507074152 | 48 | 172 | 0.0 | 0.0 | 0.00 | 0.00 | 0.00 | 49 | 969.3 |
| 20260507073653 | 49 | 172 | 0.0 | 0.0 | 0.00 | 0.00 | 0.00 | 49 | 969.4 |
| 20260507073151 | 49 | 172 | 0.0 | 0.0 | 0.00 | 0.00 | 0.00 | 47 | 969.3 |
| 20260507072702 | 49 | 172 | 0.0 | 0.0 | 0.00 | 0.00 | 0.00 | 49 | 969.0 |
| 20260507072654 | 49 | 172 | 0.0 | 0.0 | 0.00 | 0.00 | 0.00 | 46 | 969.2 |
| 20260507071700 | 50 | 172 | 0.0 | 0.0 | 0.00 | 0.00 | 0.00 | 49 | 968.9 |
| 20260507071653 | 49 | 172 | 0.0 | 0.0 | 0.00 | 0.00 | 0.00 | 49 | 968.9 |
| 20260507070653 | 50 | 172 | 0.0 | 0.0 | 0.00 | 0.00 | 0.00 | 47 | 969.0 |
| 20260507070151 | 50 | 172 | 0.0 | 0.0 | 0.00 | 0.00 | 0.00 | 47 | 968.9 |
| 20260507065701 | 51 | 172 | 0.0 | 0.0 | 0.00 | 0.00 | 0.00 | 46 | 968.8 |
| 20260507065151 | 51 | 172 | 0.0 | 0.0 | 0.00 | 0.00 | 0.00 | 44 | 968.7 |
| 20260507064653 | 51 | 172 | 0.0 | 0.0 | 0.00 | 0.00 | 0.00 | 45 | 968.6 |
| 20260507064151 | 51 | 172 | 0.0 | 0.0 | 0.00 | 0.00 | 0.00 | 43 | 968.5 |
| 20260507063653 | 52 | 172 | 0.0 | 0.0 | 0.00 | 0.00 | 0.00 | 43 | 968.5 |
| 20260507063151 | 52 | 172 | 0.0 | 0.0 | 0.00 | 0.00 | 0.00 | 42 | 968.3 |
| 20260507062658 | 53 | 172 | 0.0 | 0.0 | 0.00 | 0.00 | 0.00 | 40 | 968.2 |
| 20260507062652 | 53 | 172 | 0.0 | 0.0 | 0.00 | 0.00 | 0.00 | 41 | 968.3 |
| 20260507061650 | 53 | 172 | 0.0 | 0.0 | 0.00 | 0.00 | 0.00 | 39 | 968.2 |
| 20260507061157 | 53 | 172 | 0.0 | 5.0 | 0.00 | 0.00 | 0.00 | 39 | 968.2 |
| 20260507061149 | 53 | 172 | 0.0 | 0.0 | 0.00 | 0.00 | 0.00 | 39 | 968.1 |
| 20260507060149 | 54 | 172 | 0.0 | 5.0 | 0.00 | 0.00 | 0.00 | 37 | 968.0 |
| 20260507055653 | 54 | 104 | 0.0 | 10.0 | 0.00 | 0.00 | 0.00 | 37 | 968.0 |
| 20260507055149 | 54 | 89 | 1.0 | 10.0 | 0.00 | 0.00 | 0.00 | 36 | 967.9 |
| 20260507054651 | 54 | 83 | 2.0 | 6.0 | 0.00 | 0.00 | 0.00 | 36 | 967.9 |
| 20260507054149 | 55 | 116 | 0.0 | 6.0 | 0.00 | 0.00 | 0.00 | 36 | 967.9 |
| 20260507053651 | 55 | 68 | 0.0 | 6.0 | 0.00 | 0.00 | 0.00 | 35 | 967.9 |
| 20260507053156 | 56 | 102 | 1.0 | 14.0 | 0.00 | 0.00 | 0.00 | 35 | 967.8 |
| 20260507053148 | 56 | 73 | 2.0 | 7.0 | 0.00 | 0.00 | 0.00 | 35 | 967.9 |
| 20260507052149 | 56 | 93 | 2.0 | 14.0 | 0.00 | 0.00 | 0.00 | 35 | 967.7 |
| 20260507051649 | 56 | 75 | 6.0 | 13.0 | 0.00 | 0.00 | 0.00 | 35 | 967.5 |
| 20260507051149 | 57 | 107 | 2.0 | 11.0 | 0.00 | 0.00 | 0.00 | 34 | 967.5 |
| 20260507050651 | 57 | 97 | 0.0 | 9.0 | 0.00 | 0.00 | 0.00 | 34 | 967.4 |
| 20260507050148 | 57 | 71 | 1.0 | 11.0 | 0.00 | 0.00 | 0.00 | 34 | 967.5 |
| 20260507045650 | 58 | 94 | 2.0 | 14.0 | 0.00 | 0.00 | 0.00 | 33 | 967.4 |
| 20260507045148 | 58 | 114 | 2.0 | 14.0 | 0.00 | 0.00 | 0.00 | 33 | 967.3 |
| 20260507044650 | 58 | 97 | 3.0 | 14.0 | 0.00 | 0.00 | 0.00 | 33 | 967.1 |
| 20260507044149 | 58 | 66 | 2.0 | 13.0 | 0.00 | 0.00 | 0.00 | 34 | 967.1 |
| 20260507043650 | 59 | 92 | 5.0 | 14.0 | 0.00 | 0.00 | 0.00 | 34 | 967.1 |
| 20260507043147 | 59 | 69 | 3.0 | 16.0 | 0.00 | 0.00 | 0.00 | 34 | 967.0 |
| 20260507042650 | 60 | 106 | 4.0 | 19.0 | 0.00 | 0.00 | 0.00 | 33 | 966.8 |
| 20260507042147 | 60 | 100 | 6.0 | 19.0 | 0.00 | 0.00 | 0.00 | 33 | 966.7 |
| 20260507041649 | 60 | 83 | 6.0 | 16.0 | 0.00 | 0.00 | 0.00 | 35 | 966.6 |
| 20260507041146 | 61 | 89 | 4.0 | 14.0 | 0.00 | 0.00 | 0.00 | 35 | 966.7 |
| 20260507040649 | 61 | 0 | 1.0 | 14.0 | 0.00 | 0.00 | 0.00 | 36 | 966.5 |
| 20260507040147 | 61 | 104 | 2.0 | 11.0 | 0.00 | 0.00 | 0.00 | 35 | 966.5 |
| 20260507035649 | 62 | 71 | 6.0 | 11.0 | 0.00 | 0.00 | 0.00 | 35 | 966.2 |
| 20260507035156 | 62 | 38 | 1.0 | 11.0 | 0.00 | 0.00 | 0.00 | 35 | 965.9 |
| 20260507035148 | 62 | 49 | 2.0 | 11.0 | 0.00 | 0.00 | 0.00 | 35 | 965.9 |
| 20260507034148 | 63 | 39 | 3.0 | 7.0 | 0.00 | 0.00 | 0.00 | 34 | 965.8 |
| 20260507033648 | 63 | 75 | 2.0 | 7.0 | 0.00 | 0.00 | 0.00 | 33 | 965.7 |
| 20260507033146 | 64 | 54 | 0.0 | 14.0 | 0.00 | 0.00 | 0.00 | 32 | 965.6 |
| 20260507032647 | 64 | 21 | 4.0 | 14.0 | 0.00 | 0.00 | 0.00 | 31 | 965.4 |
| 20260507032145 | 65 | 68 | 2.0 | 7.0 | 0.00 | 0.00 | 0.00 | 30 | 965.2 |
| 20260507031655 | 66 | 65 | 0.0 | 9.0 | 0.00 | 0.00 | 0.00 | 29 | 965.0 |
| 20260507031648 | 65 | 66 | 0.0 | 6.0 | 0.00 | 0.00 | 0.00 | 30 | 965.1 |
| 20260507030656 | 66 | 99 | 1.0 | 10.0 | 0.00 | 0.00 | 0.00 | 28 | 964.8 |
| 20260507030648 | 66 | 103 | 1.0 | 10.0 | 0.00 | 0.00 | 0.00 | 29 | 964.9 |
| 20260507025647 | 67 | 63 | 2.0 | 9.0 | 0.00 | 0.00 | 0.00 | 27 | 964.9 |
| 20260507025145 | 67 | 63 | 1.0 | 11.0 | 0.00 | 0.00 | 0.00 | 27 | 964.7 |
| 20260507024646 | 67 | 72 | 2.0 | 11.0 | 0.00 | 0.00 | 0.00 | 27 | 964.7 |
| 20260507024145 | 68 | 90 | 2.0 | 11.0 | 0.00 | 0.00 | 0.00 | 27 | 964.4 |
| 20260507023647 | 68 | 63 | 0.0 | 11.0 | 0.00 | 0.00 | 0.00 | 26 | 964.5 |
| 20260507023145 | 69 | 73 | 0.0 | 6.0 | 0.00 | 0.00 | 0.00 | 26 | 964.6 |
| 20260507022646 | 69 | 54 | 1.0 | 7.0 | 0.00 | 0.00 | 0.00 | 26 | 964.7 |